Wind_Gust
11 15 17 15 11 11 11 10 10 11 12 12 13 14 13 14 14 13 11 11 10 10 9 8 6 6 6 7 8 8 9 8 7 7 8 6 5 6 4 6 6 4 6 4 3 5 6 6 6 6 6 11 7 8 8 6 6 9 10 12 12 9 12 9 12 7 4 2 6 9 6 8 8 7 8 8 6 6 4 3 4 6 4 2 4
13 14 18 18 13 10 10 8 11 12 14 13 13 13 13 13 12 11 10 8 9 10 10 8 6 6 6 6 6 7 7 6 6 8 9 7 6 7 7 7 7 5 6 6 3 4 5 7 7 8 7 10 8 11 7 8 7 9 7 13 12 8 6 12 6 9 6 3 4 4 7 8 9 7 12 10 7 6 7 6 4 4 5 5 5
12 12 13 12 8 8 11 11 10 13 16 12 12 12 11 11 12 13 12 10 6 9 8 8 8 7 7 7 6 7 8 8 9 9 8 9 9 7 6 7 8 8 7 5 4 3 6 6 6 6 6 10 7 7 8 8 6 10 6 7 10 6 3 8 11 6 9 6 5 8 8 8 9 10 10 8 7 9 8 9 9 7 6 7 8
11 9 7 9 11 13 11 12 13 13 13 10 11 9 10 10 11 14 12 11 10 7 8 8 8 9 9 9 5 4 6 6 4 5 9 9 10 10 8 8 8 7 8 8 7 6 5 6 4 5 6 9 6 7 7 8 9 8 8 5 6 5 3 5 6 10 6 9 5 6 6 9 11 6 6 8 7 9 10 4 2 5 4 7 6
11 14 10 10 7 13 10 14 13 13 11 11 10 10 9 8 9 11 12 12 10 10 8 8 9 8 8 6 7 8 8 10 9 7 7 8 11 10 9 7 6 6 7 8 8 8 6 6 5 7 8 8 4 5 6 8 7 9 8 7 8 6 6 6 6 7 8 7 5 2 2 4 5 3 5 6 4 4 3 4 6 5 5 3 2
17 18 16 12 10 12 15 10 12 9 9 11 13 14 12 7 9 9 12 13 11 11 11 8 10 9 9 9 9 9 8 9 8 9 9 8 9 9 9 9 6 5 5 6 8 7 7 6 6 7 8 9 5 4 5 6 6 8 8 8 8 9 9 7 7 9 9 4 4 4 4 4 3 2 2 4 7 6 8 6 7 6 2 3 4
14 16 17 17 14 13 15 9 12 11 10 9 8 11 16 11 9 10 10 12 11 11 9 10 8 11 10 10 11 10 9 8 7 6 5 6 8 9 8 7 6 5 3 5 6 6 6 6 6 5 7 7 8 7 6 5 8 6 8 9 8 10 10 8 8 9 8 6 4 2 2 2 3 3 6 6 7 5 7 4 5 4 2 3 5
13 13 14 12 11 12 12 13 12 12 9 6 7 10 11 13 13 12 9 10 9 11 12 13 10 10 11 11 11 10 10 8 7 6 7 6 6 7 8 8 6 4 3 3 3 4 5 5 5 5 6 5 7 6 8 8 6 6 3 7 9 11 9 8 8 8 7 7 5 2 5 2 7 4 3 7 5 5 5 5 3 3 7 6 4
10 9 9 11 9 10 10 10 9 10 10 9 7 7 8 7 6 7 6 6 9 9 10 11 11 8 6 9 9 8 10 10 9 8 9 7 6 7 7 8 8 7 5 4 3 4 4 4 4 5 6 7 6 6 6 7 10 8 2 7 8 11 8 8 8 9 8 8 5 3 5 8 7 5 7 6 3 4 4 4 3 5 5 7 4
10 10 10 9 8 8 8 8 8 6 8 10 7 7 9 8 9 9 9 9 9 9 9 9 10 11 9 5 5 7 8 7 8 10 8 10 8 7 7 7 7 7 6 5 3 4 5 5 4 9 10 10 10 10 11 11 8 9 9 8 9 8 8 8 8 9 9 9 3 3 8 8 7 4 4 2 2 3 10 9 7 7 3 5 5
8 10 10 8 9 10 9 9 9 7 4 7 9 6 7 7 8 8 11 11 11 10 11 10 9 9 11 10 9 8 7 8 9 9 9 10 9 8 9 8 6 7 7 8 8 8 5 5 6 10 9 8 8 9 11 12 12 12 10 7 5 11 11 9 5 6 6 6 3 7 8 6 4 3 4 5 5 6 3 4 6 8 8 6 10
10 8 9 9 8 9 8 7 5 6 5 5 6 7 6 7 8 8 9 10 10 9 11 11 11 10 10 9 10 9 9 6 10 9 10 10 8 8 7 8 8 7 8 8 8 9 7 7 5 7 7 8 8 9 10 11 12 12 12 12 12 10 6 10 8 6 6 9 6 4 7 6 2 3 2 3 4 7 5 6 5 4 4 4 5
10 8 8 10 9 10 9 10 8 8 6 5 4 6 6 7 7 8 8 8 9 11 10 9 10 8 10 10 9 8 8 7 9 9 10 10 7 3 5 6 8 8 8 8 7 7 6 8 7 6 8 11 9 8 10 10 9 12 12 12 11 11 10 9 6 9 11 10 9 4 5 6 5 2 2 4 3 5 2 4 2 2 2 2 5
10 11 10 9 7 8 8 8 8 7 4 4 4 6 6 5 4 4 6 6 8 7 6 7 7 9 10 11 11 9 9 8 10 10 10 7 5 3 5 5 4 6 7 7 7 7 8 12 11 8 6 7 8 9 9 10 10 10 9 9 9 10 10 11 10 9 5 9 11 8 3 5 6 4 2 5 4 2 2 2 2 2 3 5 5
12 10 10 7 7 6 3 6 9 10 10 8 7 8 7 7 6 5 10 11 12 12 10 8 7 7 7 7 8 8 7 8 9 9 8 6 4 1 3 2 5 4 5 6 9 10 10 12 11 11 8 7 9 11 12 10 9 10 10 9 9 8 7 7 5 4 6 7 9 9 7 6 7 6 4 3 5 6 5 3 5 3 3 3 4
18 16 15 10 5 5 6 7 8 6 5 7 6 6 6 10 9 5 5 5 3 4 2 4 7 7 8 8 8 8 5 6 7 6 5 4 3 7 7 10 8 7 5 4 6 10 13 14 13 11 9 8 7 11 12 12 12 12 11 7 6 5 6 4 5 4 8 9 9 9 8 7 7 7 5 5 3 2 4 5 6 5 5 6 3
15 14 16 17 16 11 6 6 7 5 8 6 3 2 3 3 5 8 8 8 9 8 9 8 7 8 8 7 9 7 6 6 7 7 6 5 7 5 8 10 9 8 6 5 8 11 12 12 13 13 10 8 7 12 14 13 12 12 11 8 6 6 5 4 7 7 6 6 6 7 7 6 5 4 5 4 5 4 5 7 4 2 8 5 6
12 13 13 12 15 16 13 9 6 4 4 5 4 3 3 5 5 7 9 9 8 9 8 6 6 7 8 9 10 10 8 9 12 10 8 9 8 10 10 12 9 10 7 5 7 10 11 13 12 13 13 10 11 14 15 15 13 12 12 11 9 7 2 1 3 4 6 6 5 4 4 5 4 5 4 3 4 4 3 3 3 5 6 4 5
15 13 11 9 10 10 11 12 12 13 12 12 10 7 4 5 5 2 5 6 8 6 7 8 6 6 7 8 8 9 8 8 11 10 10 8 6 8 13 12 12 9 11 8 4 8 7 9 12 13 13 14 16 15 14 13 14 14 14 13 10 8 7 5 6 4 2 2 1 1 4 4 2 3 2 4 4 5 6 6 6 7 4 1 2
12 10 10 11 11 13 11 12 11 11 11 11 12 13 12 10 6 5 4 2 3 2 4 6 8 8 6 6 9 10 10 8 12 14 13 10 6 7 12 14 12 11 9 14 12 4 4 5 5 12 15 15 14 14 13 14 14 12 12 12 12 8 6 6 5 4 3 2 2 6 8 7 9 8 7 6 4 4 5 6 6 8 4 2 1
14 14 14 16 15 15 14 14 15 14 14 12 11 11 11 11 10 5 6 8 5 5 7 5 7 7 6 7 7 7 10 11 10 15 12 10 10 9 12 13 13 13 13 12 13 13 9 7 5 8 15 15 15 14 14 14 12 13 11 11 6 8 7 7 3 3 2 3 7 10 11 10 9 8 9 9 8 6 5 4 4 3 5 4 3
15 16 17 18 18 17 16 16 15 15 16 17 19 17 14 12 7 7 8 6 7 10 6 7 9 9 7 7 8 11 9 12 13 14 13 12 12 10 11 11 16 16 13 11 10 10 13 12 11 9 13 16 16 15 15 14 13 13 11 10 11 12 9 7 7 5 6 7 11 11 9 11 11 11 11 11 11 11 10 9 7 7 7 6 3
14 15 16 17 17 17 17 17 17 18 17 16 15 15 14 15 16 12 9 10 8 7 5 8 9 10 10 10 8 8 8 9 12 14 13 12 13 12 11 11 13 13 17 15 15 15 8 9 9 10 13 17 16 15 14 14 11 11 11 10 9 10 8 7 6 9 8 8 11 11 9 9 11 10 10 10 10 9 10 10 9 9 8 7 7
14 16 15 15 16 17 17 17 16 13 14 13 12 14 15 14 13 12 13 13 9 5 9 4 5 9 13 14 9 9 8 7 7 9 13 13 11 12 12 13 18 16 14 16 15 14 15 12 13 14 14 17 17 16 14 11 13 11 10 11 9 7 7 8 9 9 9 11 12 10 9 5 9 9 7 6 7 7 9 7 9 7 6 6 5
12 14 15 16 17 16 17 18 18 17 17 16 16 17 15 12 15 16 16 18 16 14 4 7 4 6 9 12 13 12 12 10 3 6 8 7 8 11 12 14 17 17 16 7 11 15 12 14 15 15 15 17 17 15 11 12 14 12 11 10 8 7 9 10 9 10 11 10 10 9 6 5 6 7 6 5 4 3 5 4 4 5 3 2 3
16 15 16 17 19 19 19 18 17 17 17 17 15 14 15 16 15 14 11 11 12 13 16 9 6 4 6 6 9 13 12 10 7 5 5 5 4 6 9 11 14 15 10 12 12 15 16 15 15 14 14 14 15 12 11 12 11 12 11 8 7 9 10 10 8 11 9 8 10 10 9 7 5 5 4 5 8 6 4 5 8 8 6 5 8
15 15 16 16 17 16 14 13 14 15 15 16 15 15 15 16 16 17 15 15 13 13 13 14 14 10 10 10 11 10 7 12 7 5 8 11 13 13 12 12 12 15 15 15 14 14 13 11 10 7 8 10 10 8 9 9 11 9 7 7 8 8 8 8 11 12 10 11 9 9 6 5 3 3 4 8 7 3 3 3 4 4 3 4 2
12 11 12 11 12 11 11 9 12 12 12 12 14 15 15 13 14 13 14 12 13 14 11 13 14 14 14 13 12 10 11 12 13 11 10 12 11 10 10 12 12 11 14 13 13 13 12 9 11 9 10 10 9 8 7 7 7 8 8 7 7 7 8 8 7 9 8 8 9 7 4 4 6 5 5 6 3 1 1 3 2 5 6 5 7
9 9 8 9 10 7 8 7 6 8 9 11 9 6 9 12 11 10 4 2 5 8 12 13 13 13 13 14 13 13 11 15 14 12 18 15 25 17 11 12 18 10 10 16 17 13 13 12 10 11 10 8 6 5 5 6 7 6 6 5 6 9 9 8 10 10 10 10 10 8 6 6 5 2 4 3 2 2 2 2 3 4 7 2 5
7 7 7 7 7 8 8 8 7 7 7 8 12 14 6 3 6 8 12 9 5 9 7 10 11 11 11 13 15 17 17 17 15 23 21 21 21 21 19 20 17 14 13 18 19 15 12 13 9 10 8 7 9 8 7 6 7 6 3 4 6 9 7 7 8 10 6 9 9 8 7 5 4 4 4 3 2 5 6 5 6 4 3 4 7
7 6 6 7 7 6 5 6 5 6 7 7 8 7 16 18 8 9 10 14 10 8 9 11 12 9 8 12 14 16 14 17 21 23 24 24 25 22 21 21 21 21 21 20 12 15 12 12 9 9 8 7 8 7 5 6 6 5 3 2 2 6 6 9 6 6 7 9 5 4 6 7 6 5 5 6 5 5 7 5 3 6 5 6 6
7 7 4 5 7 6 5 5 6 7 8 6 7 8 9 11 21 16 13 11 16 11 5 8 11 13 11 8 9 14 9 9 15 19 21 21 20 22 23 23 25 26 22 20 18 17 19 19 16 15 13 12 13 8 7 8 7 8 6 5 5 5 8 7 7 8 6 8 7 5 5 4 6 6 6 5 5 5 5 6 5 5 5 3 4
7 6 6 7 8 8 8 8 7 7 8 8 9 9 8 9 10 16 24 14 11 13 9 11 11 10 11 13 10 8 9 8 14 16 17 18 17 19 22 24 26 24 20 16 19 19 16 18 19 16 16 15 12 12 11 9 9 7 8 9 9 6 4 4 6 8 7 9 9 7 5 4 4 4 4 3 1 3 2 3 4 1 1 3 5
5 5 5 5 7 8 8 7 7 9 6 6 7 6 7 7 8 8 10 18 21 14 10 8 13 15 12 11 10 11 9 4 7 11 11 9 9 10 12 14 17 25 22 20 19 19 17 17 16 18 16 14 12 10 10 9 9 9 9 8 6 7 6 6 9 8 6 4 4 1 1 1 1 2 2 1 1 1 3 2 1 1 3 4 5
6 7 8 7 4 6 6 7 8 7 9 11 10 9 9 7 6 6 8 9 12 15 15 17 12 10 10 9 12 11 8 5 8 9 10 12 15 16 14 15 12 10 9 6 4 9 11 10 12 9 9 10 9 10 11 11 11 12 11 9 10 10 7 7 9 7 8 7 8 6 4 3 2 2 1 3 5 6 1 1 3 4 3 5 7
5 6 6 5 8 8 8 8 7 9 10 9 9 8 7 8 9 9 7 7 8 10 14 12 11 8 9 10 11 10 11 10 8 11 12 15 18 18 14 10 8 5 3 3 8 10 12 12 12 12 11 12 11 10 11 13 12 12 12 13 12 11 10 9 9 8 6 10 8 6 7 6 4 8 7 8 5 3 2 3 5 5 4 6 7
5 6 4 6 5 7 8 6 7 8 6 6 7 8 8 8 8 9 8 10 10 11 10 12 13 10 6 6 10 10 11 10 11 12 12 12 12 12 12 15 13 9 6 4 6 4 5 8 9 9 9 10 10 11 10 11 11 11 9 12 12 12 10 9 8 10 11 10 7 7 6 4 4 4 8 5 1 1 2 3 4 7 7 7 6
3 2 3 4 4 6 5 5 6 6 8 7 8 7 8 9 10 9 11 12 12 11 13 13 7 5 6 8 10 5 7 7 9 9 8 7 10 10 9 9 11 15 15 12 12 10 10 6 8 10 10 11 12 12 12 12 12 12 12 11 9 9 10 12 9 11 10 10 7 4 5 4 3 4 6 5 2 2 4 5 6 7 8 8 5
3 5 5 4 2 2 2 2 4 7 8 7 8 8 10 11 10 11 11 12 12 12 11 10 9 9 7 5 8 9 7 7 4 3 6 6 6 9 8 5 5 4 5 9 8 7 6 8 10 9 11 13 14 13 14 12 12 12 12 13 12 10 12 11 11 10 10 9 5 2 3 2 1 2 3 4 2 2 4 4 5 3 5 9 10
5 6 6 5 2 1 1 3 5 6 5 8 9 9 9 9 11 11 11 11 12 12 10 11 11 10 8 5 4 6 2 8 5 2 5 6 3 4 6 6 4 6 10 11 11 9 9 9 4 4 3 5 13 16 13 14 14 13 13 14 14 13 10 10 11 11 10 5 5 2 2 2 2 2 3 3 4 3 3 3 5 6 7 7 8
5 5 5 3 3 3 4 6 4 3 5 7 6 7 8 10 10 10 11 11 11 12 10 10 10 9 9 10 6 3 5 6 2 6 8 11 8 5 3 5 5 3 4 5 9 9 9 10 10 10 12 13 9 12 14 15 15 16 15 14 14 13 11 10 10 9 8 5 3 2 2 2 3 4 2 4 4 3 3 2 6 7 8 8 7
7 8 8 7 7 7 6 3 2 2 4 4 7 7 9 9 9 10 11 10 10 11 11 10 11 11 11 14 14 9 5 3 2 4 8 10 7 5 2 2 2 3 7 9 12 13 13 14 12 12 13 12 13 13 13 13 16 16 16 15 14 13 11 9 8 6 5 4 3 3 3 3 2 3 2 5 4 6 6 7 7 8 9 9 9
5 6 5 7 7 6 6 6 3 3 3 5 6 5 6 8 9 9 9 10 10 10 10 12 11 12 11 10 13 11 10 10 6 8 6 8 9 9 9 8 8 8 8 8 10 14 16 16 14 13 13 12 12 13 16 14 13 15 14 14 13 13 12 8 6 4 3 4 4 3 2 2 4 4 4 5 5 6 6 7 8 8 9 9 9
4 3 2 2 5 6 4 4 4 1 1 4 6 6 7 7 8 8 9 10 10 9 9 9 10 11 11 12 11 12 14 13 12 10 6 9 11 11 10 9 11 12 10 11 11 13 18 19 18 16 15 14 13 13 13 11 11 14 15 15 13 12 9 7 6 4 4 5 3 3 3 2 3 4 5 6 5 7 8 7 8 9 10 10 10
2 1 3 5 1 3 3 3 4 2 1 4 5 6 7 7 8 8 8 9 9 9 10 10 10 10 11 12 12 13 13 12 9 7 9 12 14 12 11 12 12 13 14 14 12 14 16 18 18 18 18 15 14 15 14 13 13 12 10 12 13 12 8 7 4 3 5 7 5 2 2 2 4 6 5 4 5 5 8 7 8 8 11 11 10
2 2 1 1 1 3 2 5 4 3 3 5 6 6 5 7 8 9 8 8 9 10 10 10 10 10 11 12 12 12 11 10 11 10 10 12 15 14 13 13 14 15 15 14 15 16 16 16 17 18 17 16 15 15 14 13 13 12 11 11 11 9 6 5 5 8 8 7 6 2 3 3 4 4 5 4 4 5 6 7 6 7 8 10 11
5 5 4 2 4 4 2 6 7 4 4 5 4 4 6 7 8 7 8 10 10 10 10 10 11 12 12 13 13 12 11 11 11 11 12 14 15 15 14 14 16 17 15 15 15 16 16 17 16 16 16 15 15 14 12 11 11 11 11 11 11 8 7 7 8 8 6 5 4 4 4 4 4 4 7 5 5 6 8 7 6 10 11 11 11
5 4 7 6 5 6 4 6 8 4 4 5 4 3 5 7 8 7 7 8 9 9 10 11 11 11 11 12 11 12 12 11 10 11 13 15 14 14 14 15 16 15 15 16 15 15 15 14 14 14 15 15 13 12 12 12 12 12 11 11 10 10 9 7 7 7 6 5 6 4 4 4 4 3 4 4 5 5 8 11 10 11 11 11 11
7 6 5 5 5 4 6 8 8 9 8 5 5 3 4 8 8 7 7 8 7 7 8 9 9 9 11 10 10 10 10 10 11 11 12 12 12 13 13 14 14 15 15 16 15 15 15 14 13 13 14 13 14 14 13 12 11 9 10 10 10 10 9 7 6 7 6 5 5 5 5 4 4 5 7 6 8 7 9 9 8 11 11 11 10
5 5 6 5 3 2 3 3 8 10 8 7 7 4 2 6 8 7 6 5 5 6 7 8 8 8 8 9 9 9 9 10 10 9 9 9 10 11 12 13 14 14 14 14 14 13 13 13 13 13 13 13 13 13 12 11 10 9 8 11 11 10 9 9 8 7 6 5 6 5 5 5 6 6 6 7 7 8 9 11 9 9 9 11 11
3 2 2 3 2 1 3 7 9 9 9 8 7 5 5 4 7 7 7 5 6 7 7 8 7 7 8 7 7 8 8 8 8 8 9 9 9 10 11 13 14 14 13 13 13 13 13 12 13 12 12 13 12 12 10 10 9 10 9 11 12 11 10 9 7 7 8 6 4 4 5 6 6 7 8 7 7 7 10 10 12 8 8 9 10
Wind_Speed
7 8 8 7 2 7 6 6 7 7 8 8 8 7 7 8 7 7 5 4 4 4 4 5 4 4 3 3 4 4 4 4 3 4 4 3 3 4 3 4 4 3 4 2 2 4 4 4 4 4 4 7 5 4 4 4 3 4 6 7 7 5 7 4 6 4 1 0 2 4 4 5 4 4 4 4 3 3 2 1 1 3 2 1 2
7 7 9 7 2 0 6 5 6 7 9 8 8 6 6 6 6 6 6 4 4 4 4 4 3 4 4 4 4 4 4 4 4 4 5 4 4 3 3 4 4 3 3 4 2 3 4 5 5 5 5 6 5 5 3 4 4 6 4 7 7 6 4 5 3 5 4 1 2 0 3 4 4 3 6 6 4 3 4 3 2 2 3 4 3
7 7 8 7 4 3 6 7 6 8 11 8 8 6 6 7 7 8 7 6 4 5 4 4 5 4 5 4 4 4 4 4 3 4 4 4 4 3 2 3 4 4 4 3 3 2 4 4 4 4 3 6 5 4 4 5 4 6 4 4 6 4 2 5 6 3 5 3 2 4 4 4 5 6 6 4 4 5 4 5 5 4 3 4 4
6 6 4 3 3 6 8 8 9 8 8 6 8 6 6 5 6 8 8 7 6 4 5 5 5 5 5 4 3 3 3 4 3 4 5 6 6 5 3 3 3 4 4 3 3 3 4 4 3 4 4 5 4 4 4 4 5 4 4 3 4 3 2 3 3 5 3 5 1 3 3 4 5 2 3 3 4 5 4 1 1 3 3 4 3
7 8 5 5 3 3 6 9 8 8 7 7 7 7 6 5 4 7 7 7 6 6 5 5 6 5 5 4 4 4 5 5 5 4 4 5 6 6 5 4 4 4 4 4 4 4 4 4 4 4 5 5 3 4 4 5 4 5 5 3 4 3 3 3 4 4 5 4 2 0 1 1 2 1 4 4 2 2 1 2 3 3 3 1 1
9 10 9 4 2 6 10 5 8 6 7 8 9 9 8 4 4 5 7 8 7 7 7 5 6 5 5 5 5 5 4 4 4 5 6 5 4 4 3 3 3 3 3 3 3 3 4 4 4 4 5 6 4 2 3 5 4 4 4 4 4 4 5 4 4 5 5 3 2 2 2 2 1 0 0 3 5 4 4 3 4 3 1 1 2
9 9 9 9 7 7 10 6 6 7 6 6 6 7 10 8 4 4 3 5 6 6 6 6 5 7 6 6 6 6 5 4 4 4 3 4 5 5 4 4 3 2 2 3 2 2 3 3 4 4 4 5 5 4 4 4 5 4 4 4 4 6 5 4 5 5 5 4 3 1 1 1 1 1 2 2 4 2 4 3 3 2 1 2 3
8 8 9 8 7 7 7 8 6 6 5 4 5 6 5 8 9 8 6 6 6 6 7 7 6 6 7 7 7 6 6 4 4 4 4 3 4 4 5 5 4 3 2 1 1 1 2 3 3 3 4 3 4 4 4 5 4 4 2 4 4 6 5 4 5 5 4 4 3 2 3 1 3 2 1 4 3 2 3 2 2 1 4 3 3
6 6 6 6 5 6 6 6 5 6 6 6 5 5 5 4 4 5 4 4 4 5 5 6 6 4 4 5 5 5 6 6 5 5 5 4 3 4 4 4 5 4 3 3 2 2 2 1 2 3 3 4 4 4 4 5 5 5 2 4 5 6 4 5 5 6 5 5 3 2 3 5 4 2 4 3 2 2 2 2 2 3 3 4 2
6 6 6 5 5 5 5 4 5 4 4 6 5 4 5 5 6 6 5 6 5 5 5 4 6 6 5 3 4 4 4 4 6 9 7 6 5 4 3 4 5 4 4 3 2 2 3 2 1 6 8 8 7 8 8 6 5 5 6 5 6 5 5 5 4 5 5 5 2 2 4 3 2 1 3 1 1 1 5 5 3 3 1 2 1
5 5 5 5 5 4 4 3 3 3 2 3 5 4 4 4 5 5 5 6 6 6 6 6 5 6 6 6 6 5 4 4 8 9 9 9 6 5 6 5 4 4 5 5 5 4 3 2 2 5 6 6 5 8 9 9 9 8 7 5 3 6 6 5 4 4 4 4 2 4 5 4 2 0 3 3 2 3 2 3 3 3 4 3 3
6 5 5 5 5 5 5 4 4 3 3 3 4 4 3 4 5 5 5 6 6 6 7 7 7 6 5 5 6 6 5 6 9 8 9 9 7 5 4 4 4 4 4 5 5 5 4 4 3 3 3 4 5 5 7 9 9 9 9 9 9 8 5 6 5 3 4 5 4 2 4 3 1 1 1 2 2 3 2 3 3 2 2 1 0
6 5 4 5 4 3 3 3 3 2 1 1 3 3 3 3 4 5 5 4 5 6 6 6 6 5 6 6 6 5 5 6 8 8 8 9 5 3 3 4 5 4 4 4 4 4 3 4 4 3 4 7 5 5 6 6 7 9 9 10 10 9 9 8 5 5 6 6 6 2 2 3 3 1 1 2 2 3 0 2 1 1 1 0 2
6 7 6 5 4 3 3 3 3 3 3 3 3 4 4 3 3 3 4 4 4 4 4 5 4 5 6 7 6 5 6 6 9 9 9 7 5 3 2 3 3 3 3 3 3 4 5 6 6 4 3 4 5 6 5 6 5 4 5 5 5 7 9 10 9 8 4 5 6 5 2 3 3 2 1 3 2 1 1 1 1 0 1 1 2
8 6 5 4 4 4 2 1 2 3 4 4 4 5 5 4 3 3 5 6 6 6 6 6 5 5 5 5 5 5 4 6 8 8 7 4 4 1 0 1 3 3 3 4 5 5 6 6 6 6 5 5 5 7 7 6 5 6 6 5 5 5 4 4 3 3 3 4 4 5 4 3 4 4 2 2 1 2 2 1 2 2 1 1 1
10 10 9 6 3 3 3 3 4 4 1 1 2 3 3 5 5 3 3 3 2 2 1 2 4 4 4 5 5 5 3 5 6 5 3 4 3 1 2 4 4 4 3 3 4 6 7 7 7 6 5 5 6 11 9 7 7 7 6 4 4 3 3 3 4 2 4 6 5 5 5 4 5 3 3 2 2 2 2 3 3 3 2 3 1
9 8 8 9 8 4 3 3 3 3 3 3 2 1 1 1 4 4 5 5 5 5 6 5 5 4 4 4 5 4 3 4 6 5 4 3 2 2 4 5 5 5 4 3 5 7 7 7 7 7 6 5 6 11 12 11 7 7 7 5 4 4 3 2 5 7 5 5 5 5 4 3 3 3 2 2 1 2 2 4 2 1 5 3 3
6 7 7 7 8 9 8 6 3 2 2 2 2 2 2 2 1 1 3 5 4 5 5 4 4 4 5 5 6 6 4 5 6 7 6 7 6 6 6 7 5 6 5 3 5 6 7 11 9 8 7 6 8 12 13 11 8 8 7 7 5 4 1 1 2 2 6 6 5 3 2 2 5 5 3 2 3 3 2 1 0 3 4 3 0
7 7 7 6 6 6 7 7 8 8 8 8 5 3 2 1 1 1 1 2 3 3 3 5 4 4 5 5 7 6 5 5 8 7 7 6 4 5 6 7 7 5 7 5 3 5 4 7 10 10 9 9 12 12 12 10 8 8 8 8 6 5 4 3 3 2 0 0 1 1 3 3 1 1 1 2 3 4 3 3 3 4 3 1 0
7 6 7 7 7 8 7 7 7 7 7 7 7 8 7 6 3 1 2 1 1 1 2 3 4 4 4 3 4 5 5 5 7 10 10 8 5 5 7 7 7 6 5 8 7 2 3 4 4 10 13 13 13 13 12 12 9 7 7 7 7 5 3 3 2 2 1 1 1 4 5 4 5 4 4 3 2 2 3 3 3 5 3 1 0
8 8 7 9 9 9 9 9 9 9 9 7 6 6 7 7 7 4 3 5 2 2 3 3 3 4 3 4 4 4 5 6 7 12 10 8 7 7 7 8 7 7 7 7 7 7 5 4 3 6 12 12 12 12 12 12 11 8 7 6 4 5 5 4 2 3 2 2 4 6 5 5 4 4 5 5 5 4 3 3 3 2 3 2 2
8 9 10 9 9 10 10 9 8 8 9 10 10 9 9 7 5 5 4 3 4 5 4 4 5 5 4 4 5 5 5 7 7 9 9 9 10 9 7 7 9 9 7 7 6 6 7 7 6 7 10 12 12 12 13 12 11 7 6 9 10 11 6 4 4 3 3 6 7 6 4 6 6 6 6 6 6 6 6 6 5 5 4 3 2
7 8 9 10 9 9 8 10 9 8 9 9 9 9 8 9 8 6 6 6 6 4 3 4 6 6 6 6 5 5 4 3 7 8 10 10 11 11 10 8 11 7 9 9 9 8 5 6 6 9 11 13 13 13 12 12 9 7 10 9 9 9 6 5 4 5 5 6 7 6 4 4 6 6 6 6 6 5 6 5 5 5 4 4 4
7 8 8 8 9 9 9 9 8 8 9 8 8 9 9 8 8 7 7 6 6 4 7 1 1 3 6 7 6 6 5 4 5 5 6 10 9 11 10 11 15 10 8 9 8 8 8 7 8 12 12 14 14 13 12 10 9 10 9 9 8 6 4 5 5 6 5 7 7 6 5 3 6 6 4 4 4 4 5 4 4 4 3 3 3
7 9 9 9 10 9 10 10 10 9 9 8 8 8 7 8 8 10 9 8 8 7 3 3 2 3 5 6 7 6 7 5 1 4 7 6 7 8 11 13 16 14 9 4 6 8 9 12 13 13 13 14 14 13 9 11 12 10 10 9 7 4 6 6 6 6 7 6 6 6 4 3 4 4 4 3 2 1 2 2 2 2 2 1 2
10 10 10 10 11 11 12 11 11 11 11 9 8 7 7 7 6 5 6 7 7 7 7 3 2 1 3 3 5 6 4 4 1 1 2 2 3 5 2 8 12 13 7 6 8 10 11 11 12 11 11 10 9 7 6 7 10 10 10 7 5 7 6 7 5 6 6 5 6 6 5 4 3 3 3 3 4 3 2 1 3 4 3 3 5
9 9 9 9 9 9 9 8 8 9 9 9 8 8 8 8 9 9 7 8 7 7 7 8 7 4 6 7 7 6 3 2 1 1 5 6 6 7 7 7 8 10 9 8 10 9 8 7 6 6 6 8 8 7 7 7 7 6 5 5 5 5 5 5 7 7 6 6 5 5 4 4 2 2 1 3 3 1 2 2 2 2 1 1 0
7 6 7 6 6 6 6 8 8 7 7 7 7 8 7 7 7 7 7 7 7 8 6 7 8 8 8 7 6 6 4 6 7 6 4 5 5 5 4 6 7 6 5 6 8 7 7 7 8 5 4 5 5 3 3 4 5 5 5 5 5 4 6 7 6 5 4 5 5 4 2 2 3 3 2 3 2 0 0 1 0 2 3 1 2
5 5 5 5 6 4 5 4 4 5 5 6 5 4 5 6 5 6 3 1 3 5 6 6 7 6 6 8 7 7 4 8 8 10 11 12 10 6 2 5 5 7 8 10 9 7 7 7 7 6 6 6 3 3 3 4 4 4 4 4 4 6 6 6 7 6 6 6 6 5 4 3 2 1 2 2 1 1 1 1 1 2 4 0 3
5 4 3 4 3 4 5 5 4 5 5 5 7 7 4 3 5 4 6 8 5 8 6 5 6 6 6 7 6 7 9 9 11 18 17 17 17 17 16 16 13 8 10 12 12 7 5 7 5 6 5 4 3 3 3 4 4 3 2 3 4 6 5 4 6 6 4 5 5 5 4 3 3 2 2 2 2 3 3 3 3 1 1 2 4
4 3 3 3 3 3 2 3 3 3 4 4 4 4 9 9 6 7 9 11 9 8 8 10 10 8 5 6 9 13 12 6 14 18 18 18 19 18 17 16 15 15 16 9 5 7 6 6 5 5 6 5 5 5 3 3 3 5 2 1 2 4 4 5 4 4 5 5 3 3 4 4 4 3 3 4 3 3 4 3 1 1 1 2 3
3 3 2 2 3 4 3 2 3 3 4 4 3 5 5 6 11 12 10 9 13 9 4 7 9 10 9 6 6 7 7 8 12 12 15 17 16 16 17 17 17 18 17 14 9 9 10 10 9 8 7 7 7 5 5 5 5 5 4 3 3 2 3 4 4 5 4 5 4 3 3 3 3 3 3 3 3 1 2 2 3 3 2 2 2
3 4 3 3 3 3 3 3 3 3 3 3 5 5 5 5 6 8 13 12 9 11 8 4 7 8 9 10 9 7 8 7 10 12 13 14 12 13 15 16 18 19 16 9 9 10 9 9 10 9 8 8 6 6 6 6 5 5 5 6 6 4 2 2 4 5 4 5 5 5 3 2 2 2 2 1 0 1 1 2 1 1 0 1 3
2 2 2 2 3 3 3 3 3 4 2 3 3 3 4 4 5 5 6 9 11 9 9 7 8 9 6 8 9 10 9 5 6 10 10 7 5 9 10 8 13 19 14 8 8 10 8 9 9 10 10 7 4 4 4 5 5 5 5 5 3 5 4 4 6 5 4 3 4 1 0 0 0 0 1 1 1 0 2 1 0 0 2 2 3
4 5 6 4 3 4 3 4 5 3 5 5 5 3 3 3 3 3 5 5 7 8 7 9 8 7 6 6 8 8 7 3 4 7 7 10 12 13 12 9 6 4 3 1 2 4 6 6 6 6 6 5 5 5 5 5 5 5 6 5 5 6 4 5 6 5 5 4 5 4 3 2 1 0 0 1 2 2 1 0 1 2 2 3 4
3 4 4 3 5 4 5 4 3 4 4 4 4 3 3 3 4 4 4 4 5 6 7 7 6 6 8 7 9 9 9 9 6 5 9 12 14 15 8 6 5 4 1 0 1 2 6 7 7 7 6 6 6 5 5 5 5 5 6 7 7 6 6 5 6 5 4 6 5 4 5 4 3 4 3 2 2 1 1 1 3 3 2 4 4
3 4 3 4 3 4 4 3 3 4 4 4 4 5 4 4 4 4 4 5 5 6 6 7 7 6 4 4 7 8 10 9 9 10 9 8 10 8 7 8 7 5 3 3 3 2 3 4 4 5 6 6 5 6 5 6 6 7 6 7 7 7 6 5 5 6 7 6 4 5 4 3 2 2 4 2 0 1 1 2 3 4 4 4 4
2 1 3 2 2 2 2 3 3 4 5 4 4 4 5 5 5 5 6 5 6 6 7 7 5 3 4 5 7 4 3 6 8 8 7 6 6 5 4 6 7 7 8 6 4 4 4 3 2 4 5 6 6 5 6 6 7 7 7 6 5 5 7 7 6 7 6 6 5 4 3 2 2 2 3 2 0 1 2 3 3 3 4 5 3
3 4 3 3 2 1 1 2 3 4 4 4 4 5 5 6 6 6 6 5 6 6 6 5 4 5 4 3 3 5 4 3 2 2 4 4 4 3 5 3 1 1 2 5 5 4 4 2 2 3 5 6 6 7 7 6 6 7 7 7 7 7 7 6 6 6 6 6 4 2 2 1 1 2 2 2 0 1 2 3 2 2 3 5 5
3 3 4 2 1 1 0 2 3 3 3 4 5 5 5 5 6 6 5 6 6 6 6 6 6 5 4 2 2 2 0 2 1 1 2 3 1 1 3 4 1 2 6 5 5 5 5 5 2 2 2 1 3 8 7 8 8 7 7 8 8 7 6 6 6 6 6 4 4 1 1 0 0 0 0 2 3 2 1 2 3 4 4 4 5
3 3 2 2 3 2 3 3 1 1 2 3 3 4 4 5 5 5 6 6 6 6 5 5 5 5 5 6 4 1 1 2 2 3 4 4 3 2 2 3 3 2 3 4 6 5 5 5 5 6 6 7 5 5 6 7 8 8 8 8 8 7 6 5 6 6 5 3 2 1 0 0 1 1 1 2 2 1 1 1 3 4 4 4 4
2 4 4 3 5 3 4 2 1 1 3 2 4 4 5 5 5 5 6 6 5 6 6 6 6 6 8 12 12 6 2 2 1 1 3 4 3 2 1 1 1 2 3 3 5 6 6 6 6 6 7 7 7 7 7 7 6 7 8 8 8 7 6 5 5 4 4 3 2 1 1 1 1 1 0 2 3 4 3 3 4 4 4 5 5
4 4 2 4 3 3 3 2 1 2 2 3 4 4 4 4 5 5 5 5 6 6 5 6 6 6 6 9 8 9 5 4 4 4 4 1 1 3 4 4 5 5 5 4 4 6 7 8 7 6 7 7 7 7 8 8 7 7 7 7 7 7 7 5 4 3 2 2 2 1 1 1 2 1 1 3 3 3 4 4 4 4 5 5 5
3 1 1 1 2 3 2 2 2 1 1 3 4 4 4 4 4 4 5 6 6 5 5 5 5 6 6 7 7 7 6 6 7 6 3 2 5 5 5 5 6 6 6 6 5 6 9 10 9 8 8 8 7 7 6 5 5 7 7 7 7 7 6 4 4 2 3 4 2 2 3 1 1 1 2 3 3 4 4 4 4 5 5 6 6
1 1 2 1 1 2 2 2 3 1 1 3 2 3 4 4 4 4 5 5 5 5 5 5 6 6 6 6 6 7 7 7 5 4 4 4 6 6 6 6 7 7 7 7 6 7 8 9 10 10 10 8 7 7 7 7 6 6 5 6 7 6 5 4 3 2 3 4 3 1 1 1 1 2 2 2 2 3 4 3 4 5 6 6 5
1 1 0 0 1 1 2 3 2 2 2 3 3 3 3 3 4 5 5 5 5 5 6 5 5 6 5 6 6 7 6 5 5 5 5 5 6 7 7 7 7 8 7 7 7 8 8 9 9 9 9 8 8 7 7 7 6 6 6 5 5 5 3 3 3 4 5 4 4 2 1 1 1 2 2 2 2 3 3 3 3 4 4 6 6
2 3 2 2 2 2 1 3 4 3 2 3 3 2 2 3 4 4 5 6 6 5 5 5 6 6 6 7 7 7 6 5 6 6 6 6 7 7 7 7 8 8 8 8 8 8 9 9 9 9 9 8 8 8 6 5 5 5 5 5 4 4 3 4 4 4 3 3 2 1 1 2 2 2 3 2 3 3 4 3 3 6 6 5 6
3 3 4 4 3 3 2 4 4 3 2 3 3 1 1 3 4 4 4 4 5 5 5 5 6 6 6 6 6 6 6 6 5 5 5 6 7 7 8 8 9 8 8 8 8 8 8 8 8 8 8 7 7 6 5 6 5 5 5 5 5 4 4 4 3 4 3 3 2 2 2 2 2 2 2 2 2 3 4 5 5 5 6 6 6
3 3 2 2 3 3 4 5 5 5 5 3 3 2 1 3 4 4 3 3 3 4 4 4 5 5 5 5 5 5 5 5 6 6 6 6 7 7 7 8 8 8 8 8 8 8 8 7 7 6 6 6 7 7 7 6 6 5 6 6 5 7 6 5 4 3 3 2 2 2 2 2 2 2 2 2 3 4 4 4 4 5 6 6 6
3 3 3 3 2 2 2 2 5 5 4 4 4 3 2 3 5 4 2 2 3 3 4 4 4 4 4 5 5 5 5 5 5 5 5 5 5 6 7 7 8 7 8 8 7 7 7 6 7 6 7 7 7 7 6 6 5 4 4 5 8 7 6 7 7 6 4 2 3 2 2 2 2 3 3 3 3 4 5 5 4 5 5 6 6
1 1 1 1 1 0 1 3 5 6 5 5 5 3 3 2 3 5 3 3 4 4 4 4 4 4 4 4 3 4 4 4 4 4 5 5 5 5 6 7 7 7 7 7 7 6 6 6 6 6 6 6 6 6 6 5 5 5 6 7 7 7 8 7 5 6 6 5 3 2 2 2 2 3 3 3 3 3 6 6 6 4 5 5 6
Wind_Direction
41 26 26 12 59 142 152 149 146 135 132 133 132 140 143 143 145 145 133 137 134 141 147 146 145 144 137 147 153 156 150 147 139 131 122 124 127 128 111 103 104 106 103 70 62 88 87 84 64 48 60 73 73 71 63 78 94 104 121 123 129 148 132 125 128 135 93 197 148 180 187 150 182 199 185 198 166 187 205 218 155 159 151 176 256
74 85 97 121 302 252 133 126 127 127 114 112 121 139 138 138 133 133 140 135 139 153 156 148 145 145 151 155 156 161 162 159 156 138 142 144 157 147 132 128 127 142 126 122 88 68 87 81 55 51 58 78 71 66 69 68 91 98 102 124 131 147 166 115 139 132 170 61 75 34 173 187 180 197 191 184 193 162 197 211 165 182 179 179 210
128 131 128 117 115 71 85 94 103 112 117 128 133 139 143 142 145 147 145 143 147 155 162 162 162 160 159 167 160 163 164 169 170 146 142 134 127 95 128 140 132 125 110 104 81 73 72 67 50 50 65 70 63 69 64 72 78 94 96 106 128 156 179 141 125 121 147 166 164 166 199 205 185 193 204 187 147 179 185 210 199 190 189 183 204
117 88 59 49 65 108 111 100 87 76 78 96 116 130 137 148 159 148 146 140 148 165 164 172 172 171 171 175 143 111 118 137 148 144 133 118 113 114 101 92 99 109 111 107 104 100 114 86 62 84 86 83 71 78 72 74 74 86 90 79 103 103 116 113 116 132 161 136 213 170 220 191 245 236 138 169 158 171 215 188 138 194 195 193 196
115 98 110 137 148 129 95 98 90 100 111 115 118 123 133 154 157 147 145 149 159 165 178 174 178 174 160 148 129 129 145 152 150 139 123 129 132 136 137 136 136 137 136 134 132 127 120 116 114 116 106 98 77 85 95 85 75 80 82 78 86 91 73 85 101 104 122 148 149 225 194 216 254 231 146 135 95 64 62 159 188 188 227 245 214
150 153 157 102 137 146 123 150 138 148 153 147 147 147 140 146 160 162 160 161 166 172 170 180 171 163 156 148 141 146 152 154 146 141 146 147 136 128 131 133 141 135 130 129 128 130 123 122 125 131 125 125 143 138 106 110 99 90 88 81 90 85 86 71 88 102 108 112 137 139 40 99 37 27 103 152 136 102 75 64 68 61 66 27 358
155 151 141 161 170 165 137 140 140 149 150 145 146 157 154 158 170 178 194 169 169 172 162 166 166 155 159 150 150 151 150 140 136 140 142 144 139 135 134 132 125 126 133 149 161 140 128 123 124 129 132 141 147 152 134 106 106 104 109 105 93 92 81 78 82 91 104 106 57 90 65 7 92 77 11 71 89 127 132 81 56 353 48 104 60
151 145 144 149 161 155 139 148 162 143 127 113 140 162 171 161 178 180 181 179 179 169 164 165 163 155 160 161 163 149 144 142 144 145 148 150 145 147 149 146 147 154 156 142 160 165 162 143 130 138 138 150 151 155 138 130 115 102 101 110 101 95 95 86 73 77 77 62 60 31 8 25 358 351 4 38 45 20 47 122 116 0 360 355 41
122 124 135 139 136 142 141 153 159 144 139 130 130 147 150 147 145 151 154 159 165 166 163 155 143 148 159 164 159 156 150 161 166 160 155 161 166 164 168 162 160 169 175 165 167 183 191 187 129 121 117 113 129 144 150 145 131 119 131 121 113 108 99 91 102 95 78 87 60 28 40 33 6 26 33 21 81 148 326 45 67 352 350 25 21
99 107 119 124 123 126 136 149 157 145 144 134 113 113 124 136 144 152 157 161 160 154 147 153 150 153 154 152 147 154 159 171 189 181 168 162 173 172 172 182 174 170 169 165 167 198 185 197 180 125 115 113 107 106 108 112 116 133 159 135 125 113 120 115 106 108 104 96 98 90 78 50 15 48 97 15 313 21 49 43 62 322 26 357 323
84 100 109 111 112 115 115 110 120 149 140 99 112 104 117 129 135 142 146 152 154 154 154 154 161 162 162 160 162 169 173 192 193 193 190 181 171 168 175 188 180 168 171 174 181 187 184 174 129 121 107 89 77 84 94 94 88 83 75 86 126 142 128 110 124 134 121 120 139 103 112 111 39 20 118 106 47 79 116 117 105 62 69 51 334
98 97 107 104 112 122 119 127 149 182 142 136 132 123 102 111 123 137 148 153 159 155 162 167 164 168 166 167 168 176 187 194 190 198 206 204 193 172 175 176 181 180 176 182 180 177 170 159 140 130 117 121 119 96 81 82 94 97 90 80 73 73 117 143 139 108 122 122 107 135 125 138 136 79 60 67 93 68 61 95 96 111 85 81 195
42 59 78 104 119 124 132 141 128 151 153 119 101 109 110 118 134 140 162 168 153 164 174 165 168 168 165 166 176 180 191 193 202 209 218 221 194 175 183 170 174 179 183 177 174 180 152 129 127 121 129 130 111 108 112 93 76 82 84 76 61 63 66 82 104 136 143 117 130 159 169 163 104 57 208 158 160 101 90 64 101 114 147 168 243
54 54 44 41 56 86 120 107 112 146 162 163 127 133 139 150 152 136 131 143 167 170 171 173 166 172 177 178 180 184 187 192 202 209 216 209 160 193 212 179 169 163 175 166 179 165 145 146 137 126 128 128 130 128 122 117 119 94 66 55 56 46 49 54 67 77 93 141 145 156 207 141 153 193 219 148 107 149 126 284 185 125 159 208 222
39 41 49 58 58 36 32 50 134 170 184 181 173 164 158 159 168 164 151 160 170 175 178 181 183 174 176 176 172 183 197 176 203 209 215 177 128 131 75 148 128 125 146 175 186 153 144 141 137 139 142 142 153 152 138 138 117 94 76 59 46 37 41 34 34 70 88 97 112 124 153 169 158 179 197 171 159 185 167 194 185 186 192 331 14
41 39 38 31 61 89 76 43 32 15 343 274 202 183 148 158 169 177 144 143 146 141 145 168 178 183 181 169 167 188 176 175 195 207 201 119 114 181 182 158 124 123 128 146 144 138 138 135 132 137 144 149 166 156 139 129 112 103 94 82 67 52 38 354 353 57 115 121 130 142 164 182 170 175 181 165 132 107 72 53 58 45 54 46 15
34 35 34 29 36 58 113 107 55 50 38 27 348 323 293 205 172 169 161 171 169 179 190 190 199 191 182 183 183 199 200 181 182 173 137 147 194 195 153 124 124 119 114 116 128 133 138 139 137 136 135 141 163 152 147 131 122 122 120 111 108 96 71 14 23 33 55 108 137 151 154 148 156 162 153 138 129 131 75 45 358 43 57 29 335
30 32 31 28 32 32 33 37 60 66 39 1 323 310 312 323 300 199 176 180 196 208 197 193 194 194 184 194 192 187 202 174 175 169 163 200 210 160 145 131 125 119 106 94 120 132 145 146 141 139 138 152 161 147 152 144 136 137 132 129 125 120 144 346 24 11 15 21 30 34 54 21 27 33 28 22 30 44 75 58 240 98 80 117 229
25 24 24 26 30 36 33 31 26 25 16 355 341 310 258 238 269 270 234 196 219 217 200 194 202 200 201 192 189 185 178 165 177 179 185 203 215 145 140 132 131 140 131 109 85 122 138 151 150 146 144 156 157 148 148 144 143 148 147 134 136 147 192 175 153 128 157 131 20 33 25 13 99 112 77 112 99 80 92 135 146 98 123 140 179
15 23 25 29 33 34 34 39 37 35 24 16 9 9 357 351 323 289 261 200 226 249 236 214 204 217 207 191 200 191 176 172 182 187 196 188 187 151 148 138 151 160 155 146 134 104 125 132 142 140 138 144 140 135 135 132 136 142 135 133 135 158 191 162 181 136 125 96 59 60 77 66 62 67 61 58 61 102 128 138 133 120 121 140 167
17 24 29 31 29 29 29 29 27 27 20 14 5 10 17 5 354 353 317 307 261 234 232 234 218 234 222 227 220 219 206 181 180 188 197 178 175 172 159 163 163 161 163 156 155 157 163 165 153 154 138 131 126 121 120 119 124 129 133 140 164 159 134 124 125 140 138 116 79 80 78 67 61 58 62 54 50 41 43 39 59 93 114 114 98
21 22 26 29 28 26 25 27 30 24 18 12 11 7 2 4 11 359 327 276 250 234 216 217 218 221 226 229 231 232 223 207 173 198 202 185 183 189 162 179 166 159 159 165 162 166 167 168 167 172 146 133 127 123 121 121 120 111 123 124 120 123 127 138 146 125 89 81 86 81 73 69 61 55 53 53 48 51 54 53 53 54 55 80 84
28 26 23 22 21 23 24 26 24 20 16 7 6 7 359 356 351 1 10 351 325 301 250 212 207 216 228 221 225 238 258 261 202 187 202 195 183 189 172 156 167 165 162 172 182 176 166 162 160 160 150 135 126 124 120 114 103 116 125 113 110 110 110 99 100 87 78 81 93 92 79 81 81 69 62 63 52 54 57 52 47 44 37 28 33
26 29 24 18 15 16 16 21 26 20 18 9 6 5 358 350 346 356 354 3 352 317 293 350 315 263 230 242 229 224 220 219 211 233 235 196 187 171 163 163 166 180 183 183 173 159 160 170 166 163 153 137 131 131 129 124 129 128 116 117 115 110 103 99 87 94 93 91 96 103 99 100 99 89 91 99 95 89 71 60 49 44 46 25 10
30 25 18 14 12 8 14 17 17 19 16 15 16 9 2 357 358 345 348 357 348 341 304 284 221 210 264 260 249 240 231 207 141 156 199 245 250 186 159 159 182 176 179 176 153 168 164 154 152 155 148 137 136 123 117 124 129 132 134 135 129 106 104 101 103 85 83 101 112 111 109 110 119 130 142 120 94 66 65 23 28 27 1 19 339
23 19 21 25 22 20 21 13 12 11 10 11 10 6 2 358 359 351 354 344 336 328 322 310 278 243 191 241 277 286 336 332 8 77 167 193 280 296 200 146 165 177 143 107 123 120 131 134 136 134 127 132 124 121 130 136 134 128 125 119 108 114 112 104 88 93 109 121 123 129 147 152 131 138 138 142 109 107 138 87 38 5 12 16 11
40 37 37 32 28 27 28 16 7 4 5 2 4 2 360 2 1 2 5 0 353 340 332 328 319 275 249 222 216 206 192 120 233 69 26 29 23 2 0 24 65 90 100 113 108 112 113 113 116 110 101 100 93 114 124 131 114 98 95 98 101 96 101 126 135 126 132 128 133 147 161 160 123 89 125 115 99 92 82 104 60 317 313 295 338
45 44 44 39 34 26 22 13 13 4 359 359 357 355 358 2 2 358 351 356 345 335 328 320 307 300 296 267 230 209 205 190 186 145 123 88 64 32 17 52 49 28 54 87 102 104 103 91 83 65 72 64 70 63 69 82 100 105 94 88 91 102 106 96 86 108 129 138 135 123 119 120 128 145 117 95 107 225 310 34 113 297 286 305 0
45 46 43 41 30 18 17 10 4 358 347 348 347 337 336 342 345 327 319 47 305 295 303 289 279 283 280 263 237 233 217 194 201 157 158 152 139 133 56 41 69 130 144 127 93 78 89 93 102 108 116 123 118 109 107 112 88 85 90 67 95 121 123 116 124 137 143 130 141 147 151 129 138 122 102 94 212 260 239 331 299 195 284 247 246
38 35 39 45 27 21 9 359 351 353 353 350 345 337 330 313 304 310 305 316 289 255 235 258 290 303 286 265 241 213 198 209 168 165 174 175 171 166 160 165 176 160 156 164 135 137 141 139 147 142 127 121 162 178 164 141 125 110 67 59 103 124 133 132 142 153 148 145 145 133 156 149 160 146 143 159 243 271 251 200 267 6 8 311 308
29 17 22 21 10 14 4 354 345 343 349 351 354 347 334 333 326 314 307 309 306 290 270 272 289 287 250 273 273 267 298 283 182 179 178 179 182 177 170 170 167 155 152 139 112 137 136 133 147 133 132 161 188 191 159 124 150 160 156 97 100 120 135 145 154 135 137 127 121 134 148 151 175 185 173 204 209 253 297 2 12 358 318 295 298
24 358 349 350 358 4 356 0 350 2 350 349 348 346 341 335 329 329 337 330 320 317 269 312 329 335 331 291 251 286 268 231 237 216 192 187 186 176 171 163 162 158 169 151 135 157 162 168 172 172 175 182 198 170 165 174 174 175 148 131 178 216 153 171 173 142 125 116 128 152 181 179 167 197 211 211 223 295 352 328 359 1 332 337 293
15 349 348 351 4 3 5 7 359 0 346 342 341 343 349 339 333 327 327 333 329 322 310 340 5 345 343 347 328 269 253 242 223 221 215 207 188 182 172 166 167 162 154 164 169 173 177 175 173 170 173 191 181 174 179 172 176 177 164 165 181 191 195 203 136 126 139 161 160 180 190 191 192 194 249 344 35 290 300 15 342 343 283 294 302
340 333 333 357 10 1 356 353 343 334 323 329 338 341 337 331 318 309 321 331 339 342 337 330 355 349 356 356 346 339 326 282 227 223 224 236 182 169 163 162 168 171 170 177 175 176 179 172 171 175 188 182 159 137 156 182 184 180 172 182 141 126 144 144 122 126 126 120 115 96 71 53 67 140 307 322 264 120 71 43 12 303 302 299 302
348 338 353 9 26 357 342 348 335 335 352 0 358 349 336 330 313 315 321 320 316 317 310 317 328 355 344 342 356 1 358 354 149 156 158 143 131 126 114 115 146 222 279 100 199 179 161 165 161 170 153 134 129 150 183 201 187 177 169 140 131 138 130 122 117 114 101 88 75 66 76 91 88 135 155 103 72 68 52 289 281 257 300 327 322
337 342 337 357 359 349 344 337 342 359 2 348 337 336 341 343 340 328 313 306 303 303 313 310 300 304 326 353 3 9 12 20 35 91 128 130 131 125 123 135 144 166 207 352 162 218 185 172 171 169 146 159 168 174 181 180 172 154 137 132 146 149 139 124 117 99 100 99 106 109 88 67 85 101 91 84 127 166 220 241 266 287 319 323 310
330 323 323 336 347 344 339 344 3 0 351 355 354 358 353 347 338 332 330 321 315 309 296 301 322 327 331 339 353 4 18 32 41 50 64 107 134 134 148 157 153 131 126 116 127 169 220 217 179 139 143 156 165 172 168 159 148 136 139 141 145 144 144 129 122 124 111 105 97 96 110 136 153 158 137 140 234 248 254 259 286 315 321 304 306
285 267 299 319 331 349 348 351 348 355 11 7 358 358 348 343 338 334 330 328 323 320 317 321 324 305 306 298 344 0 1 11 27 28 21 41 55 67 98 133 156 170 167 161 184 221 226 237 164 155 154 153 160 167 160 150 140 135 137 131 112 101 104 105 110 103 106 110 122 140 141 155 181 180 159 145 170 270 298 302 325 322 317 314 306
311 303 300 337 328 309 301 354 7 26 4 4 6 0 355 347 342 337 336 334 330 326 317 319 341 356 353 327 341 328 6 16 16 12 358 4 28 70 95 98 148 118 133 154 171 183 204 221 239 171 160 168 166 160 143 135 126 122 121 112 102 105 105 105 103 106 105 114 119 123 127 175 229 227 194 174 200 280 292 301 315 294 292 297 299
306 321 327 355 33 335 354 58 44 25 4 14 10 6 354 348 344 339 338 336 331 328 325 335 350 357 331 326 335 354 16 275 11 33 6 332 338 69 98 64 18 198 164 163 172 160 119 101 86 78 63 30 132 138 131 123 120 125 122 119 120 110 107 107 111 111 118 124 125 134 135 225 290 254 173 198 233 265 340 339 308 304 294 284 289
304 294 345 52 100 117 84 71 52 14 19 38 14 4 353 348 344 341 337 332 331 328 333 335 339 334 348 354 7 133 265 280 242 210 202 215 236 198 140 146 162 259 250 181 162 145 122 118 112 107 111 111 93 79 102 119 123 113 109 105 100 103 101 95 99 104 109 109 114 103 25 348 0 58 14 314 320 2 335 298 311 302 299 306 299
356 21 35 82 107 118 128 129 147 24 53 42 33 15 2 354 346 342 332 331 331 330 336 343 337 332 337 2 12 8 121 189 185 343 17 344 314 52 76 62 98 151 167 156 140 124 111 104 101 106 108 101 99 93 77 61 76 100 107 106 106 104 96 94 94 97 104 108 98 95 47 36 31 38 313 356 2 347 349 330 297 302 317 310 308
37 39 53 122 134 155 159 184 139 62 30 36 30 23 5 7 359 339 335 341 339 342 348 348 342 341 346 355 21 35 33 28 41 51 51 350 353 59 62 68 76 80 85 93 107 115 112 103 92 86 87 87 97 110 112 121 121 110 105 105 106 104 106 100 87 87 100 102 86 62 48 27 19 20 3 24 1 354 340 318 324 333 319 312 305
81 73 43 94 158 194 165 121 105 97 47 57 46 21 21 7 351 347 355 349 349 354 358 354 350 357 360 360 19 46 40 40 38 27 18 52 71 66 67 76 82 81 80 82 84 99 104 99 94 83 75 74 73 76 82 83 95 107 112 108 104 107 107 114 124 141 130 109 80 53 20 357 0 9 25 18 16 354 322 331 333 326 318 313 313
93 155 95 51 234 181 133 135 133 116 41 34 33 37 28 9 8 358 355 360 2 3 4 7 8 14 17 20 25 38 43 47 34 16 14 47 72 71 68 68 71 74 74 69 67 77 86 94 97 95 88 78 71 72 69 68 62 67 78 105 118 118 126 140 163 156 124 95 79 57 0 327 344 0 14 356 352 340 320 321 316 314 311 310 315
294 319 82 193 287 266 142 144 120 107 109 97 79 39 22 24 27 10 0 7 14 15 13 15 19 24 27 31 34 39 40 42 43 39 36 39 57 67 67 70 72 69 66 69 71 74 77 83 87 89 90 87 82 76 71 70 69 68 69 68 85 102 132 132 112 83 70 72 65 42 310 304 326 339 347 343 328 298 284 296 291 280 284 299 303
294 284 284 246 247 252 172 135 130 142 130 101 71 48 51 61 42 20 15 17 16 20 23 21 21 23 33 36 39 42 38 43 46 47 48 53 61 65 69 72 73 71 67 65 66 73 78 78 83 88 90 89 85 81 75 65 68 69 71 73 66 63 56 55 66 67 54 45 40 24 338 312 324 330 327 334 326 318 316 301 301 312 314 308 304
238 224 237 235 210 219 195 152 142 141 117 110 103 112 111 87 67 43 30 23 25 26 30 34 34 31 33 34 34 39 39 43 46 49 46 52 59 63 64 67 70 70 70 67 63 63 65 70 77 85 90 92 91 89 81 79 77 74 73 75 69 67 61 59 57 56 36 17 4 333 314 308 315 327 322 319 311 306 318 325 321 317 313 312 303
111 114 128 131 145 190 183 169 160 156 149 137 127 118 130 109 97 84 56 40 33 35 38 40 38 40 44 38 34 35 36 42 49 47 46 47 53 57 62 65 66 67 68 67 64 64 65 64 64 67 78 84 87 84 83 77 73 65 67 69 64 63 56 53 63 48 31 10 325 296 282 281 297 309 313 324 321 322 308 301 301 304 310 305 303
159 154 151 153 153 198 234 206 166 146 141 143 141 151 172 133 114 104 81 62 59 56 50 48 43 35 38 43 42 40 42 45 43 44 49 53 59 65 70 71 71 69 71 72 69 65 64 65 65 64 71 76 79 79 78 72 63 57 56 63 59 50 38 25 13 1 341 299 278 263 272 292 299 302 306 301 298 296 298 295 292 297 300 302 307
212 177 165 157 194 45 67 98 115 138 149 159 153 162 157 152 146 126 113 81 59 59 65 68 53 46 43 38 39 44 48 48 49 53 59 65 72 78 80 81 82 80 78 76 70 67 67 69 71 73 75 76 76 78 80 81 76 70 66 60 46 33 19 12 358 325 308 289 266 250 246 254 280 292 291 289 284 282 278 291 301 306 302 303 306